This is the latest recevied weather packets stored in our database for station/object SV9TNF-57. If no packets are shown the sender has not sent any weather packets the latest 10 day(s).
| Time | Temp. | Humidity | Pressure | Rain* | Wind** | Luminosity | Snow |
|---|---|---|---|---|---|---|---|
| 1788395038 | 26.67° C | 51% | 993.7 hPa | 0 mm | 0 m/s | - | - |
| 1788394738 | 27.22° C | 41% | 993.6 hPa | 0 mm | 0 m/s | - | - |
| 1788394438 | 26.67° C | 41% | 993.7 hPa | 0 mm | 0.89 m/s, 291° | - | - |
| 1788394138 | 26.67° C | 43% | 993.7 hPa | 0 mm | 0 m/s | - | - |
| 1788393838 | 26.67° C | 47% | 993.5 hPa | 0 mm | 0 m/s | - | - |
| 1788393538 | 26.67° C | 47% | 993.6 hPa | 0 mm | 0 m/s | - | - |
| 1788393238 | 26.67° C | 42% | 993.8 hPa | 0 mm | 0 m/s | - | - |
| 1788392937 | 27.22° C | 40% | 993.9 hPa | 0 mm | 0 m/s | - | - |
| 1788392637 | 26.67° C | 41% | 993.6 hPa | 0 mm | 1.34 m/s, 278° | - | - |
| 1788392337 | 26.67° C | 42% | 993.7 hPa | 0 mm | 0.89 m/s, 280° | - | - |
| 1788392037 | 26.67° C | 42% | 993.6 hPa | 0 mm | 1.34 m/s, 259° | - | - |
| 1788391737 | 26.67° C | 42% | 993.9 hPa | 0 mm | 0 m/s | - | - |
| 1788391437 | 26.67° C | 43% | 993.8 hPa | 0 mm | 0 m/s | - | - |
| 1788391137 | 26.67° C | 43% | 993.8 hPa | 0 mm | 0.89 m/s, 291° | - | - |
| 1788390837 | 26.67° C | 43% | 993.7 hPa | 0 mm | 1.34 m/s, 257° | - | - |
| 1788390536 | 26.67° C | 43% | 993.8 hPa | 0 mm | 2.24 m/s, 267° | - | - |
| 1788390236 | 26.67° C | 42% | 993.8 hPa | 0 mm | 0.89 m/s, 283° | - | - |
| 1788389937 | 27.22° C | 41% | 993.9 hPa | 0 mm | 0.45 m/s, 264° | - | - |
| 1788389636 | 27.22° C | 41% | 993.9 hPa | 0 mm | 0 m/s | - | - |
| 1788389336 | 27.22° C | 41% | 993.8 hPa | 0 mm | 0.89 m/s, 284° | - | - |
| 1788389036 | 27.22° C | 42% | 994.1 hPa | 0 mm | 0 m/s | - | - |
| 1788388736 | 27.22° C | 41% | 994.2 hPa | 0 mm | 0 m/s | - | - |
| 1788388436 | 27.22° C | 41% | 994.2 hPa | 0 mm | 1.79 m/s, 283° | - | - |
| 1788388136 | 27.78° C | 40% | 994.2 hPa | 0 mm | 0 m/s | - | - |
| 1788387836 | 27.22° C | 41% | 994.2 hPa | 0 mm | 0 m/s | - | - |
* Rain latest hour (hover to see other rain measurements)
** Current wind speed in m/s (hover to see current wind gust speed)